When you browse on this site, cookies collect data to enhance your experience and personalize the content and advertising you see.
Visit our Privacy Policy to learn more. By continuing to use the site, you agree to this use of cookies and data.
  • In Belgium
  • List of Countries
  • For 7 days
  • Water Temperature
  • Satellite Maps
  • Weather Map
  • Weather Widgets
  • user-avatar
    Login

    Hourly Weather Brisbane

    Today, 14 December, Friday

    Time Temperature Precipitation Wind Pressure Humidity
    00:00 +25°C° 0.6 mm 4 mps 753 mmHg 81%
    01:00 +24°C° 0.6 mm 3 mps 753 mmHg 85%
    02:00 +24°C° 0.3 mm 3 mps 753 mmHg 86%
    03:00 +24°C° 0.3 mm 3 mps 752 mmHg 88%
    04:00 +25°C° 0 mm 4 mps 752 mmHg 89%
    05:00 +25°C° 0.2 mm 4 mps 752 mmHg 88%
    06:00 +26°C° 0.2 mm 3 mps 752 mmHg 86%
    07:00 +26°C° 0.2 mm 3 mps 752 mmHg 84%
    08:00 +28°C° 0.8 mm 3 mps 752 mmHg 78%
    09:00 +29°C° 0.8 mm 4 mps 752 mmHg 72%
    10:00 +32°C° 0.8 mm 4 mps 752 mmHg 65%
    11:00 +33°C° 0.9 mm 5 mps 752 mmHg 63%
    12:00 +33°C° 0.9 mm 5 mps 751 mmHg 60%
    13:00 +34°C° 0.9 mm 5 mps 751 mmHg 58%
    14:00 +34°C° 0.3 mm 5 mps 751 mmHg 58%
    15:00 +33°C° 0.3 mm 5 mps 751 mmHg 58%
    16:00 +33°C° 0.3 mm 6 mps 751 mmHg 59%
    17:00 +32°C° 0 mm 6 mps 751 mmHg 65%
    18:00 +29°C° 0 mm 6 mps 751 mmHg 72%
    19:00 +28°C° 0 mm 6 mps 751 mmHg 79%
    20:00 +27°C° 1.5 mm 5 mps 752 mmHg 83%
    21:00 +27°C° 1.5 mm 5 mps 753 mmHg 86%
    22:00 +26°C° 1.5 mm 4 mps 753 mmHg 90%
    23:00 +26°C° 1.9 mm 4 mps 753 mmHg 90%

    Tomorrow, 15 December, Saturday

    Time Temperature Precipitation Wind Pressure Humidity
    00:00 +26°C° 1.9 mm 4 mps 753 mmHg 91%
    01:00 +26°C° 1.9 mm 4 mps 752 mmHg 91%
    02:00 +25°C° 1.3 mm 4 mps 753 mmHg 92%
    03:00 +25°C° 1.3 mm 4 mps 753 mmHg 93%
    04:00 +25°C° 1.3 mm 3 mps 753 mmHg 94%
    05:00 +26°C° 2.3 mm 4 mps 753 mmHg 91%
    06:00 +27°C° 2.3 mm 5 mps 753 mmHg 87%
    07:00 +27°C° 2.3 mm 6 mps 754 mmHg 84%
    08:00 +28°C° 1.2 mm 6 mps 754 mmHg 79%
    09:00 +30°C° 1.2 mm 7 mps 754 mmHg 74%
    10:00 +32°C° 1.2 mm 7 mps 754 mmHg 69%
    11:00 +32°C° 0.3 mm 7 mps 754 mmHg 69%
    12:00 +32°C° 0.3 mm 7 mps 754 mmHg 68%
    13:00 +32°C° 0.3 mm 6 mps 754 mmHg 68%
    14:00 +32°C° 1.1 mm 6 mps 753 mmHg 71%
    15:00 +30°C° 1.1 mm 6 mps 753 mmHg 73%
    16:00 +29°C° 1.1 mm 6 mps 753 mmHg 75%
    17:00 +28°C° 0.2 mm 6 mps 754 mmHg 78%
    18:00 +28°C° 0.2 mm 6 mps 754 mmHg 81%
    19:00 +27°C° 0.2 mm 5 mps 755 mmHg 84%
    20:00 +26°C° 0 mm 5 mps 755 mmHg 85%
    21:00 +26°C° 0 mm 5 mps 756 mmHg 86%
    22:00 +26°C° 0 mm 5 mps 756 mmHg 87%
    23:00 +26°C° 0.1 mm 4 mps 756 mmHg 87%

    Day after tomorrow, 16 December, Sunday

    Time Temperature Precipitation Wind Pressure Humidity
    00:00 +25°C° 0.1 mm 4 mps 756 mmHg 88%
    01:00 +25°C° 0.1 mm 4 mps 755 mmHg 88%
    02:00 +25°C° 0 mm 4 mps 755 mmHg 89%
    03:00 +25°C° 0 mm 3 mps 755 mmHg 90%
    04:00 +24°C° 0 mm 3 mps 755 mmHg 91%
    05:00 +25°C° 0.1 mm 4 mps 756 mmHg 88%
    06:00 +26°C° 0.1 mm 4 mps 756 mmHg 85%
    07:00 +27°C° 0.1 mm 4 mps 757 mmHg 82%
    08:00 +27°C° 0.2 mm 4 mps 757 mmHg 83%
    09:00 +26°C° 0.2 mm 4 mps 757 mmHg 84%
    10:00 +26°C° 0.2 mm 3 mps 757 mmHg 86%
    11:00 +26°C° 0.2 mm 4 mps 757 mmHg 86%
    12:00 +26°C° 0.2 mm 4 mps 756 mmHg 86%
    13:00 +26°C° 0.2 mm 4 mps 755 mmHg 86%
    14:00 +26°C° 0.2 mm 4 mps 755 mmHg 86%
    15:00 +26°C° 0.2 mm 4 mps 755 mmHg 87%
    16:00 +26°C° 0.2 mm 5 mps 755 mmHg 87%
    17:00 +26°C° 0.1 mm 5 mps 755 mmHg 88%
    18:00 +26°C° 0.1 mm 5 mps 755 mmHg 89%
    19:00 +24°C° 0.1 mm 6 mps 755 mmHg 90%
    20:00 +25°C° 1 mm 5 mps 756 mmHg 91%
    21:00 +25°C° 1 mm 5 mps 756 mmHg 91%
    22:00 +25°C° 1 mm 5 mps 757 mmHg 92%
    23:00 +25°C° 2.4 mm 4 mps 757 mmHg 93%

    17 December, Monday

    Time Temperature Precipitation Wind Pressure Humidity
    00:00 +25°C° 2.4 mm 4 mps 756 mmHg 93%
    01:00 +25°C° 2.4 mm 4 mps 756 mmHg 93%
    02:00 +25°C° 4.2 mm 4 mps 755 mmHg 93%
    03:00 +25°C° 4.2 mm 4 mps 755 mmHg 94%
    04:00 +25°C° 4.2 mm 3 mps 755 mmHg 94%
    05:00 +25°C° 3.3 mm 4 mps 756 mmHg 92%
    06:00 +26°C° 3.3 mm 4 mps 756 mmHg 91%
    07:00 +26°C° 3.3 mm 4 mps 757 mmHg 89%
    08:00 +26°C° 2.2 mm 4 mps 757 mmHg 88%
    09:00 +27°C° 2.2 mm 4 mps 757 mmHg 87%
    10:00 +27°C° 2.2 mm 4 mps 757 mmHg 86%
    11:00 +28°C° 0.5 mm 4 mps 757 mmHg 82%
    12:00 +28°C° 0.5 mm 5 mps 757 mmHg 78%
    13:00 +29°C° 0.5 mm 5 mps 756 mmHg 75%
    14:00 +29°C° 0.3 mm 5 mps 756 mmHg 74%
    15:00 +29°C° 0.3 mm 5 mps 756 mmHg 73%
    16:00 +29°C° 0.3 mm 5 mps 756 mmHg 72%
    17:00 +28°C° 0.2 mm 5 mps 757 mmHg 77%
    18:00 +27°C° 0.2 mm 4 mps 757 mmHg 82%
    19:00 +26°C° 0.2 mm 4 mps 758 mmHg 88%
    20:00 +26°C° 0.1 mm 3 mps 758 mmHg 89%
    21:00 +25°C° 0.1 mm 3 mps 759 mmHg 90%
    22:00 +25°C° 0.1 mm 3 mps 759 mmHg 92%
    23:00 +25°C° 0.1 mm 2 mps 759 mmHg 92%

    18 December, Tuesday

    Time Temperature Precipitation Wind Pressure Humidity
    00:00 +25°C° 0.1 mm 2 mps 758 mmHg 93%
    01:00 +24°C° 0.1 mm 2 mps 758 mmHg 93%
    02:00 +24°C° 0 mm 2 mps 758 mmHg 94%
    03:00 +24°C° 0 mm 2 mps 758 mmHg 94%
    04:00 +24°C° 0 mm 2 mps 758 mmHg 94%
    05:00 +25°C° 0 mm 2 mps 758 mmHg 90%
    06:00 +26°C° 0 mm 2 mps 759 mmHg 87%
    07:00 +26°C° 0 mm 2 mps 759 mmHg 83%
    08:00 +27°C° 0.1 mm 3 mps 760 mmHg 77%
    09:00 +28°C° 0.1 mm 3 mps 760 mmHg 72%
    10:00 +29°C° 0.1 mm 3 mps 760 mmHg 67%
    11:00 +30°C° 0 mm 3 mps 759 mmHg 63%
    12:00 +32°C° 0 mm 4 mps 759 mmHg 58%
    13:00 +33°C° 0 mm 4 mps 758 mmHg 54%
    14:00 +33°C° 0 mm 4 mps 758 mmHg 55%
    15:00 +32°C° 0 mm 4 mps 758 mmHg 56%
    16:00 +32°C° 0 mm 4 mps 758 mmHg 57%
    17:00 +29°C° 0 mm 4 mps 758 mmHg 64%
    18:00 +28°C° 0 mm 3 mps 759 mmHg 72%
    19:00 +26°C° 0 mm 3 mps 759 mmHg 80%
    20:00 +25°C° 0 mm 2 mps 760 mmHg 83%
    21:00 +25°C° 0 mm 2 mps 760 mmHg 87%
    22:00 +24°C° 0 mm 2 mps 761 mmHg 90%
    23:00 +24°C° 0 mm 1 mps 760 mmHg 91%

    19 December, Wednesday

    Time Temperature Precipitation Wind Pressure Humidity
    00:00 +24°C° 0 mm 1 mps 760 mmHg 92%
    01:00 +23°C° 0 mm 1 mps 759 mmHg 93%
    02:00 +23°C° 0 mm 1 mps 759 mmHg 93%
    03:00 +23°C° 0 mm 1 mps 759 mmHg 94%
    04:00 +23°C° 0 mm 1 mps 759 mmHg 94%
    05:00 +24°C° 0 mm 1 mps 759 mmHg 89%
    06:00 +25°C° 0 mm 1 mps 760 mmHg 84%
    07:00 +26°C° 0 mm 1 mps 760 mmHg 79%
    08:00 +28°C° 0 mm 1 mps 760 mmHg 69%
    09:00 +30°C° 0 mm 2 mps 760 mmHg 60%
    10:00 +34°C° 0 mm 2 mps 759 mmHg 51%
    11:00 +35°C° 0 mm 3 mps 759 mmHg 48%
    12:00 +36°C° 0 mm 3 mps 758 mmHg 45%
    13:00 +37°C° 0 mm 3 mps 758 mmHg 42%
    14:00 +36°C° 0 mm 4 mps 757 mmHg 45%
    15:00 +35°C° 0 mm 4 mps 757 mmHg 47%
    16:00 +35°C° 0 mm 4 mps 757 mmHg 50%
    17:00 +33°C° 0 mm 4 mps 757 mmHg 59%
    18:00 +29°C° 0 mm 4 mps 757 mmHg 68%
    19:00 +27°C° 0 mm 4 mps 758 mmHg 77%
    20:00 +27°C° 0 mm 4 mps 758 mmHg 81%
    21:00 +26°C° 0 mm 3 mps 758 mmHg 84%
    22:00 +25°C° 0 mm 3 mps 758 mmHg 88%
    23:00 +25°C° 0 mm 3 mps 758 mmHg 89%
    Show more